SCP
0 0 0 0 0 0 0 0 0 0 0 0 0 0 -0 -0 -0 -0 -0 -0 -0 -0 -0 -0 -0 -0 0 0 -0 0 0 0 0 0 0 0 1 1 0 0 0 0 0 0
0 0 0 0 0 0 0 0 0 0 0 0 0 0 -0 -0 -0 -0 -0 -0 -0 -0 -0 -0 -0 0 -0 -0 -0 0 0 0 0 0 0 0 0 1 1 1 1 1 0 0
0 0 0 0 0 0 0 0 0 0 -0 0 -0 -0 -1 -0 -0 -0 -0 -0 -0 -0 -0 -0 -0 -0 -0 -0 -0 -0 -0 0 0 0 0 0 0 0 0 1 0 1 1 1
0 0 0 0 0 0 0 0 0 0 0 0 0 0 -0 -0 -0 -0 -0 -0 -0 -0 -0 -0 -0 -0 -0 -0 -0 -0 0 0 0 0 0 0 0 0 0 0 0 0 0 1
0 0 0 0 0 0 0 0 0 0 0 0 0 0 0 -0 -0 -0 -0 -0 -0 0 0 0 0 -0 -0 -0 0 0 0 0 0 0 0 1 0 0 0 0 0 0 0 0
0 0 0 0 0 0 0 0 0 0 0 0 0 0 0 -0 -0 -0 -0 -0 -0 -0 0 0 0 0 0 0 0 0 0 0 0 0 0 0 0 0 0 0 0 0 0 0
0 0 0 0 0 0 0 0 0 0 0 0 -0 0 0 -0 -0 -0 -0 -0 -0 0 0 0 0 0 0 0 0 0 0 0 0 0 0 0 0 0 0 0 0 0 0 0
0 0 0 0 0 0 0 0 0 0 0 0 0 0 1 -0 -0 -0 -0 -1 -0 -0 0 0 0 0 0 0 0 0 0 0 0 0 0 0 0 0 0 0 0 0 0 0
0 0 1 1 1 1 1 1 0 0 0 0 0 0 0 0 -0 -0 -0 -0 -0 -0 0 0 0 0 0 1 1 1 0 0 0 0 0 0 0 0 0 0 0 0 0 0
1 1 1 1 1 1 1 1 1 0 0 0 0 1 1 0 0 0 0 -0 0 0 0 0 1 1 0 0 0 0 0 0 1 1 0 0 0 0 0 0 0 0 0 0
0 0 1 0 0 0 0 0 0 0 0 0 0 0 1 0 0 0 0 0 0 0 0 0 0 0 0 0 0 0 0 0 0 0 0 0 0 0 0 0 0 0 0 0
0 0 1 1 0 0 0 0 0 0 -0 0 1 0 0 0 1 1 0 0 -0 -0 0 0 0 0 0 0 0 0 0 0 0 0 0 0 0 0 0 0 0 0 0 0
0 0 0 0 0 0 0 0 0 0 -0 -0 0 0 0 0 0 1 1 1 0 0 0 0 0 0 0 0 0 0 0 0 0 0 0 0 0 0 0 0 0 0 0 0
-0 -0 0 0 0 0 0 0 0 0 -0 -0 0 0 0 1 1 1 1 1 0 0 0 0 0 0 0 0 0 0 0 0 0 0 0 0 0 0 0 0 0 0 0 0
-0 -0 0 0 0 0 0 0 0 0 -0 0 0 1 1 1 1 1 1 1 0 0 0 0 0 0 0 0 0 0 0 0 0 0 0 0 0 0 0 0 0 0 0 0
0 0 -0 0 0 0 0 0 0 0 0 0 1 1 1 0 1 1 1 0 0 0 0 0 0 0 0 0 0 0 0 0 0 0 0 0 0 0 0 0 0 0 0 0
0 0 0 0 0 0 0 0 0 0 0 1 1 1 0 1 1 1 0 0 0 0 0 0 0 0 0 0 0 0 0 0 0 0 0 0 0 0 0 0 0 0 0 0
0 0 0 0 0 -0 0 0 0 0 0 0 0 0 0 0 0 1 1 1 1 1 1 1 0 0 0 0 0 0 0 0 0 0 0 0 0 0 0 0 0 0 0 0
0 0 0 0 0 0 0 0 0 0 1 0 0 1 1 0 0 0 1 1 1 1 1 0 0 0 0 0 0 0 0 0 0 0 0 0 0 0 0 0 0 0 0 0
0 0 0 0 0 0 0 0 0 0 0 0 0 1 1 1 0 1 1 1 1 0 1 0 0 0 0 0 0 0 0 0 0 0 0 0 0 0 0 0 0 0 0 0
0 0 0 0 0 0 0 0 0 0 0 0 1 1 1 1 1 1 1 1 1 1 0 0 0 0 0 0 0 0 0 0 0 0 0 0 0 0 0 0 0 0 0 0
0 0 0 0 0 0 0 0 0 0 0 1 1 1 1 1 1 1 1 1 2 0 0 0 1 0 0 0 0 0 0 0 0 0 0 0 0 0 0 0 0 0 0 0
0 0 0 0 0 0 0 0 0 0 0 0 1 1 1 1 1 1 1 2 1 0 1 1 0 0 0 0 0 0 0 0 0 0 0 0 0 0 0 0 0 0 0 0
0 0 0 0 0 0 0 1 1 1 1 1 1 1 1 1 1 1 1 0 0 0 1 0 0 0 0 0 0 0 0 0 0 0 0 0 0 0 0 0 0 0 0 0
0 0 0 0 1 1 1 1 1 1 1 1 1 1 1 1 2 1 1 1 0 0 0 0 0 0 0 0 0 0 0 0 0 0 0 0 0 0 0 0 0 0 0 0
0 0 0 0 0 0 0 0 0 1 1 1 1 0 0 0 1 1 1 0 0 0 0 0 0 0 0 0 0 0 0 0 0 0 0 0 0 0 0 0 0 0 0 0
-0 0 0 0 0 0 0 0 0 0 0 0 0 0 0 0 0 0 0 0 0 0 0 0 0 0 0 0 0 0 0 0 0 0 0 0 0 0 0 0 0 0 0 0
Wind_Speed_500mb
33 40 21 23 36 34 34 34 31 25 27 17 13 18 30 33 31 35 34 32 32 33 35 37 38 39 39 37 39 35 31 31 34 37 38 38 38 36 36 36 37 38 39 40
28 34 27 29 34 31 34 38 32 27 18 16 18 23 35 39 40 39 39 36 33 31 32 34 36 38 38 37 35 40 40 26 30 34 32 24 23 29 38 39 40 42 40 41
35 35 21 29 34 32 33 31 27 31 27 16 20 28 45 46 43 42 40 39 37 32 30 29 31 32 33 36 36 39 46 34 36 38 34 34 33 34 37 42 38 42 39 39
28 36 40 24 5 8 26 33 37 36 24 13 14 26 39 48 48 44 41 39 36 32 29 28 28 28 30 30 31 33 37 36 36 34 34 30 31 32 35 36 34 34 35 34
29 36 35 39 20 9 15 32 34 33 25 8 10 18 33 47 45 49 46 42 39 35 33 31 30 30 30 28 26 25 24 24 25 25 23 22 21 22 23 24 26 28 32 37
25 41 47 22 25 10 10 17 8 32 32 15 19 20 24 50 48 49 45 44 45 42 35 33 33 33 30 27 23 22 22 20 19 16 15 15 16 17 19 21 25 27 28 30
30 28 31 19 24 7 15 8 21 17 18 24 21 13 22 59 51 51 51 49 48 44 38 36 35 30 26 22 20 20 20 20 18 12 12 9 10 11 12 16 21 26 30 35
43 37 34 8 20 29 15 5 20 22 19 19 25 14 18 57 58 56 54 52 48 45 40 38 32 28 22 18 17 19 19 20 19 17 12 12 14 13 14 19 23 26 29 31
12 13 17 14 12 18 16 8 3 13 18 19 20 23 25 55 59 59 56 53 48 44 41 35 30 23 18 16 16 21 24 23 21 21 20 23 25 23 24 26 24 25 26 27
16 12 10 14 7 11 11 5 6 12 11 17 11 20 24 48 55 54 50 52 49 45 40 33 25 17 14 12 15 19 20 21 23 23 24 25 23 26 28 27 27 27 25 22
16 8 3 19 27 22 20 17 10 11 27 24 16 23 26 40 52 53 52 49 47 44 38 33 23 13 8 9 11 12 14 16 19 18 23 22 24 26 22 23 20 23 22 22
15 7 24 19 34 36 31 33 33 24 25 24 22 22 28 38 46 54 52 50 48 42 38 32 21 13 10 6 6 7 8 10 14 16 20 23 25 25 30 29 26 28 30 33
13 27 41 48 37 31 28 41 40 33 26 28 25 25 35 41 49 52 51 52 51 47 39 31 20 14 10 6 4 6 10 14 15 20 19 22 23 24 24 29 31 27 30 35
22 12 41 40 42 28 37 46 44 33 25 25 20 25 37 44 50 54 55 53 53 47 41 32 23 17 11 7 4 5 9 16 17 19 19 19 21 22 22 23 24 23 32 30
40 40 46 43 42 43 41 41 42 40 28 23 14 26 41 51 57 56 57 52 49 43 39 31 25 18 12 7 3 4 6 9 14 16 18 19 15 18 22 22 23 22 28 35
26 24 32 41 42 38 35 30 24 21 31 20 8 25 38 41 49 55 58 55 54 47 42 34 25 15 10 5 2 5 6 15 15 16 17 20 19 19 21 20 21 22 18 22
34 39 41 46 42 37 33 28 24 20 18 14 11 22 32 41 42 43 51 51 48 49 43 34 25 17 10 7 5 6 7 11 24 21 21 23 24 20 22 19 17 18 19 18
37 44 46 49 43 38 35 26 25 17 16 12 4 17 31 44 45 47 48 47 47 44 41 36 26 18 13 11 11 12 14 15 17 22 26 31 26 27 22 19 15 13 12 8
33 37 38 43 46 43 37 25 23 17 13 14 10 15 24 31 38 38 44 49 49 49 44 36 26 18 16 14 16 19 19 23 28 27 29 30 32 26 22 20 13 11 9 8
37 34 32 34 44 41 31 26 22 17 16 13 10 11 18 27 34 40 46 47 42 36 38 35 26 21 19 18 17 21 21 29 28 25 36 31 29 31 26 25 16 18 16 19
36 32 30 33 39 39 33 26 22 21 17 16 11 11 15 24 33 40 44 45 39 49 39 35 26 19 19 18 20 17 21 29 33 19 26 28 23 27 28 23 23 27 23 23
25 26 28 29 32 33 28 24 21 20 20 20 16 14 19 25 31 37 39 41 45 44 38 32 27 26 21 18 19 18 22 23 25 19 18 18 19 24 30 23 30 35 29 27
7 15 23 26 25 22 20 20 20 21 23 22 21 22 24 21 27 35 41 47 45 52 38 25 29 26 22 20 17 22 26 27 29 18 18 23 22 23 26 27 40 33 28 27
16 21 21 17 11 9 12 11 14 16 16 17 18 19 23 24 25 26 25 39 40 33 25 35 31 24 20 14 17 24 34 37 27 22 20 17 21 23 22 30 46 41 38 36
14 9 10 12 11 14 21 21 22 23 23 22 21 22 23 25 23 24 24 39 30 27 34 29 25 23 15 13 16 20 32 30 25 23 23 17 20 18 23 33 48 47 50 44
12 19 25 31 26 21 23 23 24 22 24 28 26 24 25 26 25 22 22 18 17 22 20 21 27 19 12 11 12 10 20 25 19 16 17 19 22 15 24 41 52 54 48 42
30 27 27 25 19 23 24 24 16 11 12 14 16 19 13 14 12 10 14 24 27 32 26 23 23 20 15 13 9 1 5 10 5 7 10 16 17 20 20 39 49 48 46 43
Wind_Direction_500mb
245 271 269 230 218 220 224 239 247 244 228 237 203 191 178 162 157 156 156 163 165 169 176 179 181 184 192 197 208 202 212 217 215 222 228 237 238 230 231 234 238 240 243 247
257 246 245 235 239 238 223 241 248 236 265 238 124 163 163 165 161 162 165 164 164 165 168 175 182 187 193 198 203 208 206 203 201 204 205 207 217 229 238 237 238 243 244 245
243 238 232 236 236 229 229 227 236 233 236 176 174 176 175 170 167 162 167 165 162 163 167 172 178 180 186 192 198 201 203 207 209 214 226 232 237 232 241 246 246 253 253 243
251 244 234 242 116 263 255 238 229 246 243 179 230 192 182 177 167 160 162 162 159 156 155 157 159 162 166 173 180 190 204 215 220 224 232 231 233 236 239 243 244 243 248 248
247 236 238 229 204 247 222 233 238 235 237 174 186 174 179 180 173 165 162 159 155 151 146 150 153 156 155 156 163 173 186 193 200 205 211 219 224 229 233 239 245 248 254 256
243 238 230 215 116 124 150 234 298 229 244 188 180 205 174 176 170 163 163 159 155 151 145 143 146 146 147 148 156 167 179 185 187 185 190 205 223 232 241 248 254 255 258 253
244 256 235 131 152 139 208 113 50 19 271 221 218 272 166 165 164 163 163 160 159 156 153 151 149 149 150 155 163 171 171 175 179 184 188 204 220 229 247 261 258 254 252 253
223 247 245 8 220 234 260 50 48 40 11 309 248 284 168 169 163 163 161 162 162 161 158 156 158 156 156 162 177 188 191 196 207 221 223 241 257 258 266 278 280 274 273 270
296 226 341 338 341 15 28 357 64 35 5 324 282 227 195 174 169 167 166 163 166 164 160 162 165 160 162 182 205 209 212 215 224 232 244 253 263 269 281 287 284 274 268 264
324 44 22 23 6 360 9 260 310 351 2 345 308 213 193 173 168 167 167 165 166 165 165 162 166 169 179 232 231 230 224 222 227 236 246 252 263 278 283 281 270 264 257 258
280 11 279 60 25 10 3 345 267 5 6 345 303 231 201 179 170 169 169 167 167 167 164 167 173 187 211 235 239 225 221 226 232 245 260 260 277 270 272 278 265 249 263 263
219 289 338 337 338 345 351 357 353 345 329 337 316 235 207 187 175 170 168 166 164 162 163 171 180 195 209 222 224 203 217 243 244 245 262 270 272 277 289 291 284 268 266 270
268 287 289 284 306 319 324 341 338 351 323 329 294 229 208 191 177 169 165 163 164 168 173 177 183 188 195 204 221 231 226 243 260 271 270 277 281 272 277 288 293 292 278 279
239 300 279 275 266 296 318 324 322 321 339 323 260 216 200 186 173 165 164 166 170 173 177 175 173 185 194 196 204 242 249 263 266 271 270 270 270 274 269 278 277 288 291 297
249 246 263 274 276 280 296 309 314 320 346 323 234 201 187 179 168 165 166 169 172 169 172 175 177 185 187 180 184 232 269 285 284 283 282 272 265 271 272 271 282 284 291 296
254 246 260 262 265 272 274 278 278 281 290 322 261 211 192 183 168 169 172 177 178 177 183 183 183 188 195 199 213 231 272 294 293 281 283 282 274 276 275 277 276 291 286 287
264 263 260 259 260 266 265 259 257 262 270 281 254 209 188 176 174 177 177 180 181 191 191 189 190 195 209 239 279 254 286 291 300 289 272 271 267 262 271 269 273 276 282 275
243 249 252 255 248 249 258 252 248 256 261 268 273 202 191 189 185 183 177 179 185 186 191 194 197 202 232 261 284 291 300 300 295 288 282 281 262 264 253 262 262 273 270 263
257 254 261 260 242 237 240 243 246 270 310 324 297 226 203 196 195 188 182 183 189 192 195 200 201 211 237 259 287 301 298 301 305 294 275 264 252 256 237 254 248 227 195 156
269 261 253 237 218 220 228 234 233 226 226 243 256 222 203 198 192 189 190 189 190 188 199 204 207 219 243 269 282 294 291 302 298 281 282 287 249 236 239 236 221 197 179 150
275 261 242 222 210 213 220 230 227 220 227 234 251 228 208 196 193 187 188 183 186 195 198 206 213 215 244 263 288 294 290 299 309 299 291 295 233 224 241 240 208 179 169 165
274 248 223 209 205 209 222 225 219 224 216 218 220 222 206 197 193 194 197 193 199 195 204 203 219 229 246 269 283 289 297 295 288 276 290 275 249 232 242 232 194 170 176 172
178 170 170 172 185 194 204 219 224 219 216 218 219 214 203 201 195 191 191 196 198 193 193 203 219 233 242 259 273 295 298 293 296 275 274 272 255 236 238 229 196 172 183 176
118 126 137 153 175 203 203 195 193 197 200 199 190 190 184 181 185 184 186 187 190 188 188 213 219 225 239 249 285 297 303 305 296 271 267 244 250 237 221 225 190 164 172 166
112 110 123 129 132 135 132 124 120 116 119 126 137 147 152 154 162 157 162 173 179 196 211 222 220 227 236 255 281 288 300 297 287 252 244 244 224 220 214 196 189 183 179 175
100 103 103 87 92 98 120 104 114 114 112 111 108 111 120 124 134 153 164 181 202 212 200 234 225 224 218 251 263 287 294 302 279 258 242 218 215 198 198 199 188 186 181 172
114 111 94 97 89 88 119 107 125 96 117 112 130 138 139 132 135 157 207 218 221 216 203 208 210 216 201 205 192 188 14 2 172 155 173 184 194 199 210 196 186 186 188 187
Wind_Speed_850mb
33 40 21 23 36 34 34 34 31 25 27 17 13 18 30 33 31 35 34 32 32 33 35 37 38 39 39 37 39 35 31 31 34 37 38 38 38 36 36 36 37 38 39 40
28 34 27 29 34 31 34 38 32 27 18 16 18 23 35 39 40 39 39 36 33 31 32 34 36 38 38 37 35 40 40 26 30 34 32 24 23 29 38 39 40 42 40 41
35 35 21 29 34 32 33 31 27 31 27 16 20 28 45 46 43 42 40 39 37 32 30 29 31 32 33 36 36 39 46 34 36 38 34 34 33 34 37 42 38 42 39 39
28 36 40 24 5 8 26 33 37 36 24 13 14 26 39 48 48 44 41 39 36 32 29 28 28 28 30 30 31 33 37 36 36 34 34 30 31 32 35 36 34 34 35 34
29 36 35 39 20 9 15 32 34 33 25 8 10 18 33 47 45 49 46 42 39 35 33 31 30 30 30 28 26 25 24 24 25 25 23 22 21 22 23 24 26 28 32 37
25 41 47 22 25 10 10 17 8 32 32 15 19 20 24 50 48 49 45 44 45 42 35 33 33 33 30 27 23 22 22 20 19 16 15 15 16 17 19 21 25 27 28 30
30 28 31 19 24 7 15 8 21 17 18 24 21 13 22 59 51 51 51 49 48 44 38 36 35 30 26 22 20 20 20 20 18 12 12 9 10 11 12 16 21 26 30 35
43 37 34 8 20 29 15 5 20 22 19 19 25 14 18 57 58 56 54 52 48 45 40 38 32 28 22 18 17 19 19 20 19 17 12 12 14 13 14 19 23 26 29 31
12 13 17 14 12 18 16 8 3 13 18 19 20 23 25 55 59 59 56 53 48 44 41 35 30 23 18 16 16 21 24 23 21 21 20 23 25 23 24 26 24 25 26 27
16 12 10 14 7 11 11 5 6 12 11 17 11 20 24 48 55 54 50 52 49 45 40 33 25 17 14 12 15 19 20 21 23 23 24 25 23 26 28 27 27 27 25 22
16 8 3 19 27 22 20 17 10 11 27 24 16 23 26 40 52 53 52 49 47 44 38 33 23 13 8 9 11 12 14 16 19 18 23 22 24 26 22 23 20 23 22 22
15 7 24 19 34 36 31 33 33 24 25 24 22 22 28 38 46 54 52 50 48 42 38 32 21 13 10 6 6 7 8 10 14 16 20 23 25 25 30 29 26 28 30 33
13 27 41 48 37 31 28 41 40 33 26 28 25 25 35 41 49 52 51 52 51 47 39 31 20 14 10 6 4 6 10 14 15 20 19 22 23 24 24 29 31 27 30 35
22 12 41 40 42 28 37 46 44 33 25 25 20 25 37 44 50 54 55 53 53 47 41 32 23 17 11 7 4 5 9 16 17 19 19 19 21 22 22 23 24 23 32 30
40 40 46 43 42 43 41 41 42 40 28 23 14 26 41 51 57 56 57 52 49 43 39 31 25 18 12 7 3 4 6 9 14 16 18 19 15 18 22 22 23 22 28 35
26 24 32 41 42 38 35 30 24 21 31 20 8 25 38 41 49 55 58 55 54 47 42 34 25 15 10 5 2 5 6 15 15 16 17 20 19 19 21 20 21 22 18 22
34 39 41 46 42 37 33 28 24 20 18 14 11 22 32 41 42 43 51 51 48 49 43 34 25 17 10 7 5 6 7 11 24 21 21 23 24 20 22 19 17 18 19 18
37 44 46 49 43 38 35 26 25 17 16 12 4 17 31 44 45 47 48 47 47 44 41 36 26 18 13 11 11 12 14 15 17 22 26 31 26 27 22 19 15 13 12 8
33 37 38 43 46 43 37 25 23 17 13 14 10 15 24 31 38 38 44 49 49 49 44 36 26 18 16 14 16 19 19 23 28 27 29 30 32 26 22 20 13 11 9 8
37 34 32 34 44 41 31 26 22 17 16 13 10 11 18 27 34 40 46 47 42 36 38 35 26 21 19 18 17 21 21 29 28 25 36 31 29 31 26 25 16 18 16 19
36 32 30 33 39 39 33 26 22 21 17 16 11 11 15 24 33 40 44 45 39 49 39 35 26 19 19 18 20 17 21 29 33 19 26 28 23 27 28 23 23 27 23 23
25 26 28 29 32 33 28 24 21 20 20 20 16 14 19 25 31 37 39 41 45 44 38 32 27 26 21 18 19 18 22 23 25 19 18 18 19 24 30 23 30 35 29 27
7 15 23 26 25 22 20 20 20 21 23 22 21 22 24 21 27 35 41 47 45 52 38 25 29 26 22 20 17 22 26 27 29 18 18 23 22 23 26 27 40 33 28 27
16 21 21 17 11 9 12 11 14 16 16 17 18 19 23 24 25 26 25 39 40 33 25 35 31 24 20 14 17 24 34 37 27 22 20 17 21 23 22 30 46 41 38 36
14 9 10 12 11 14 21 21 22 23 23 22 21 22 23 25 23 24 24 39 30 27 34 29 25 23 15 13 16 20 32 30 25 23 23 17 20 18 23 33 48 47 50 44
12 19 25 31 26 21 23 23 24 22 24 28 26 24 25 26 25 22 22 18 17 22 20 21 27 19 12 11 12 10 20 25 19 16 17 19 22 15 24 41 52 54 48 42
30 27 27 25 19 23 24 24 16 11 12 14 16 19 13 14 12 10 14 24 27 32 26 23 23 20 15 13 9 1 5 10 5 7 10 16 17 20 20 39 49 48 46 43
Wind_Direction_850mb
245 271 269 230 218 220 224 239 247 244 228 237 203 191 178 162 157 156 156 163 165 169 176 179 181 184 192 197 208 202 212 217 215 222 228 237 238 230 231 234 238 240 243 247
257 246 245 235 239 238 223 241 248 236 265 238 124 163 163 165 161 162 165 164 164 165 168 175 182 187 193 198 203 208 206 203 201 204 205 207 217 229 238 237 238 243 244 245
243 238 232 236 236 229 229 227 236 233 236 176 174 176 175 170 167 162 167 165 162 163 167 172 178 180 186 192 198 201 203 207 209 214 226 232 237 232 241 246 246 253 253 243
251 244 234 242 116 263 255 238 229 246 243 179 230 192 182 177 167 160 162 162 159 156 155 157 159 162 166 173 180 190 204 215 220 224 232 231 233 236 239 243 244 243 248 248
247 236 238 229 204 247 222 233 238 235 237 174 186 174 179 180 173 165 162 159 155 151 146 150 153 156 155 156 163 173 186 193 200 205 211 219 224 229 233 239 245 248 254 256
243 238 230 215 116 124 150 234 298 229 244 188 180 205 174 176 170 163 163 159 155 151 145 143 146 146 147 148 156 167 179 185 187 185 190 205 223 232 241 248 254 255 258 253
244 256 235 131 152 139 208 113 50 19 271 221 218 272 166 165 164 163 163 160 159 156 153 151 149 149 150 155 163 171 171 175 179 184 188 204 220 229 247 261 258 254 252 253
223 247 245 8 220 234 260 50 48 40 11 309 248 284 168 169 163 163 161 162 162 161 158 156 158 156 156 162 177 188 191 196 207 221 223 241 257 258 266 278 280 274 273 270
296 226 341 338 341 15 28 357 64 35 5 324 282 227 195 174 169 167 166 163 166 164 160 162 165 160 162 182 205 209 212 215 224 232 244 253 263 269 281 287 284 274 268 264
324 44 22 23 6 360 9 260 310 351 2 345 308 213 193 173 168 167 167 165 166 165 165 162 166 169 179 232 231 230 224 222 227 236 246 252 263 278 283 281 270 264 257 258
280 11 279 60 25 10 3 345 267 5 6 345 303 231 201 179 170 169 169 167 167 167 164 167 173 187 211 235 239 225 221 226 232 245 260 260 277 270 272 278 265 249 263 263
219 289 338 337 338 345 351 357 353 345 329 337 316 235 207 187 175 170 168 166 164 162 163 171 180 195 209 222 224 203 217 243 244 245 262 270 272 277 289 291 284 268 266 270
268 287 289 284 306 319 324 341 338 351 323 329 294 229 208 191 177 169 165 163 164 168 173 177 183 188 195 204 221 231 226 243 260 271 270 277 281 272 277 288 293 292 278 279
239 300 279 275 266 296 318 324 322 321 339 323 260 216 200 186 173 165 164 166 170 173 177 175 173 185 194 196 204 242 249 263 266 271 270 270 270 274 269 278 277 288 291 297
249 246 263 274 276 280 296 309 314 320 346 323 234 201 187 179 168 165 166 169 172 169 172 175 177 185 187 180 184 232 269 285 284 283 282 272 265 271 272 271 282 284 291 296
254 246 260 262 265 272 274 278 278 281 290 322 261 211 192 183 168 169 172 177 178 177 183 183 183 188 195 199 213 231 272 294 293 281 283 282 274 276 275 277 276 291 286 287
264 263 260 259 260 266 265 259 257 262 270 281 254 209 188 176 174 177 177 180 181 191 191 189 190 195 209 239 279 254 286 291 300 289 272 271 267 262 271 269 273 276 282 275
243 249 252 255 248 249 258 252 248 256 261 268 273 202 191 189 185 183 177 179 185 186 191 194 197 202 232 261 284 291 300 300 295 288 282 281 262 264 253 262 262 273 270 263
257 254 261 260 242 237 240 243 246 270 310 324 297 226 203 196 195 188 182 183 189 192 195 200 201 211 237 259 287 301 298 301 305 294 275 264 252 256 237 254 248 227 195 156
269 261 253 237 218 220 228 234 233 226 226 243 256 222 203 198 192 189 190 189 190 188 199 204 207 219 243 269 282 294 291 302 298 281 282 287 249 236 239 236 221 197 179 150
275 261 242 222 210 213 220 230 227 220 227 234 251 228 208 196 193 187 188 183 186 195 198 206 213 215 244 263 288 294 290 299 309 299 291 295 233 224 241 240 208 179 169 165
274 248 223 209 205 209 222 225 219 224 216 218 220 222 206 197 193 194 197 193 199 195 204 203 219 229 246 269 283 289 297 295 288 276 290 275 249 232 242 232 194 170 176 172
178 170 170 172 185 194 204 219 224 219 216 218 219 214 203 201 195 191 191 196 198 193 193 203 219 233 242 259 273 295 298 293 296 275 274 272 255 236 238 229 196 172 183 176
118 126 137 153 175 203 203 195 193 197 200 199 190 190 184 181 185 184 186 187 190 188 188 213 219 225 239 249 285 297 303 305 296 271 267 244 250 237 221 225 190 164 172 166
112 110 123 129 132 135 132 124 120 116 119 126 137 147 152 154 162 157 162 173 179 196 211 222 220 227 236 255 281 288 300 297 287 252 244 244 224 220 214 196 189 183 179 175
100 103 103 87 92 98 120 104 114 114 112 111 108 111 120 124 134 153 164 181 202 212 200 234 225 224 218 251 263 287 294 302 279 258 242 218 215 198 198 199 188 186 181 172
114 111 94 97 89 88 119 107 125 96 117 112 130 138 139 132 135 157 207 218 221 216 203 208 210 216 201 205 192 188 14 2 172 155 173 184 194 199 210 196 186 186 188 187